Weather History for Jackson, MS

Change the Weather History Date:

Sunday, October 20, 2013

  Actual Average Record
Temperature  
Mean Temperature 57 °F 64 °F  
Max Temperature 70 °F 76 °F 90 °F (1941)
Min Temperature 43 °F 52 °F 29 °F (1989)
Degree Days  
Heating Degree Days 8 4  
Month to date heating degree days 28 44  
Since 1 July heating degree days 28 51  
Cooling Degree Days 0 3  
Month to date cooling degree days 127 83  
Year to date cooling degree days 2314 2209  
Growing Degree Days 6 (Base 50)    
Moisture  
Dew Point 42 °F    
Average Humidity 61    
Maximum Humidity 93    
Minimum Humidity 28    
Precipitation  
Precipitation 0.00 in 0.14 in 1.30 in (1957)
Month to date precipitation 0.51 2.49  
Year to date precipitation 51.54 42.80  
Sea Level Pressure  
Sea Level Pressure 30.06 in    
Wind  
Wind Speed 1 mph (ENE)    
Max Wind Speed 9 mph    
Max Gust Speed 12 mph    
Visibility 10 miles    
Events      
T = Trace of Precipitation, MM = Missing Value Source: NWS Daily Summary

Daily Weather History Graph

Daily Weather History Graph

Search for Another Location

Airport:

Trip Planner

Search our weather history database for the weather conditions in past years. The results will help you decide how hot, cold, wet, or windy it might be!

Date:

Astronomy

Oct. 20, 2013 Rise Set
Actual Time 7:07 AM CDT 6:21 PM CDT
Civil Twilight 6:43 AM CDT 6:46 PM CDT
Nautical Twilight 6:14 AM CDT 7:15 PM CDT
Astronomical Twilight 5:45 AM CDT 7:43 PM CDT
Moon 7:37 PM CDT (10/20) 8:39 AM CDT (10/20)
Length of Visible Light 12h 03m
Length of Day
11h 13m
Full, 97% of the Moon is Illuminated
Oct 20
Full
Oct 26
Last Quarter
Nov 3
New
Nov 9
First Quarter
Nov 17
Full

Hourly Weather History & Observations

Time (CDT) Temp. Windchill Dew Point Humidity Pressure Visibility Wind Dir Wind Speed Gust Speed Precip Events Conditions
12:54 AM 48.0 °F - 46.0 °F 93% 30.07 in 10.0 mi North 4.6 mph - N/A   Clear
1:54 AM 46.9 °F - 44.1 °F 90% 30.07 in 10.0 mi Calm Calm - N/A   Clear
2:54 AM 44.1 °F - 42.1 °F 93% 30.07 in 5.0 mi Calm Calm - N/A   Clear
3:54 AM 46.0 °F - 43.0 °F 89% 30.07 in 10.0 mi Calm Calm - N/A   Clear
4:54 AM 46.0 °F - 43.0 °F 89% 30.07 in 10.0 mi Calm Calm - N/A   Clear
5:54 AM 45.0 °F 41.8 °F 43.0 °F 93% 30.08 in 6.0 mi ENE 5.8 mph - N/A   Clear
6:54 AM 45.0 °F 43.5 °F 43.0 °F 93% 30.09 in 10.0 mi ENE 3.5 mph - N/A   Clear
7:54 AM 48.0 °F - 44.1 °F 86% 30.10 in 10.0 mi Calm Calm - N/A   Clear
8:54 AM 51.1 °F - 46.0 °F 83% 30.12 in 10.0 mi ENE 3.5 mph - N/A   Clear
9:54 AM 55.0 °F - 45.0 °F 69% 30.12 in 10.0 mi East 4.6 mph - N/A   Clear
10:54 AM 60.1 °F - 43.0 °F 53% 30.11 in 10.0 mi Variable 4.6 mph - N/A   Clear
11:54 AM 63.0 °F - 37.0 °F 38% 30.10 in 10.0 mi ENE 5.8 mph - N/A   Clear
12:54 PM 66.9 °F - 37.0 °F 33% 30.08 in 10.0 mi Calm Calm - N/A   Clear
1:54 PM 66.9 °F - 36.0 °F 32% 30.04 in 10.0 mi Variable 3.5 mph - N/A   Scattered Clouds
2:54 PM 68.0 °F - 37.0 °F 32% 30.02 in 10.0 mi Calm Calm - N/A   Partly Cloudy
3:54 PM 69.1 °F - 36.0 °F 30% 30.01 in 10.0 mi Calm Calm - N/A   Partly Cloudy
4:54 PM 69.1 °F - 36.0 °F 30% 30.01 in 10.0 mi ENE 3.5 mph - N/A   Partly Cloudy
5:54 PM 64.0 °F - 46.0 °F 52% 30.01 in 10.0 mi Calm Calm - N/A   Partly Cloudy
6:54 PM 54.0 °F - 46.9 °F 77% 30.01 in 10.0 mi Calm Calm - N/A   Clear
7:54 PM 51.1 °F - 45.0 °F 80% 30.03 in 10.0 mi Calm Calm - N/A   Clear
8:54 PM 50.0 °F - 45.0 °F 83% 30.03 in 10.0 mi Calm Calm - N/A   Clear
9:54 PM 48.9 °F - 43.0 °F 80% 30.04 in 10.0 mi Calm Calm - N/A   Clear
10:54 PM 46.9 °F - 43.0 °F 86% 30.04 in 10.0 mi Calm Calm - N/A   Clear
11:54 PM 46.0 °F - 42.1 °F 86% 30.03 in 10.0 mi Calm Calm - N/A   Clear